Location: Antioch Baptist Church
(32.6696°N, 85.7327°W)
Time: 12:09:09
(UTC+00:00)

COSMOS 2455 - Pass Details

Date: 14 July 2020
Orbit: 898 x 911 km, 67.1° (Epoch: 09 August)

Event Time Altitude Azimuth Distance (km) Brightness Sun altitude
Rises 05:10:16 0° 328° (NNW) 3,545 6.8 -34.9°
Reaches altitude 10° 05:12:51 10° 323° (NW) 2,600 5.9 -35.0°
Enters shadow 05:16:27 34° 300° (WNW) 1,462 4.1 -35.2°
